{"data":{"norad_id":69497,"epoch":"2026-09-19T06:41:26.127168Z","epoch_age_seconds":130992,"freshness":"FRESH","line1":"1 69497U 26131V   26262.27877462  .00014590  00000+0  45329-3 0  9993","line2":"2 69497  97.2845 283.2098 0001595 108.8542 251.2874 15.33450375 15452","mean_motion":15.33450375,"eccentricity":0.0001595,"inclination_deg":97.2845,"raan_deg":283.2098,"arg_perigee_deg":108.8542,"mean_anomaly_deg":251.2874,"bstar":0.00045329,"rev_number":1545,"period_min":93.905875499884,"perigee_km":464.4356178694,"apogee_km":466.61874674356,"semimajor_km":6843.6641823065,"source":"CELESTRAK","updated_at":"2026-09-20T09:00:44.209103Z"}}